Location: Capannuccia
(43.7000°N, 11.3000°E)
Time: 09:22:37
(UTC+00:00)

STARLINK-1312 - Pass Details

Date: 05 October 2020
Orbit: 549 x 550 km, 53.0° (Epoch: 23 October)

Event Time Altitude Azimuth Distance (km) Brightness Sun altitude
Exits shadow 02:16:39 11° 113° (ESE) 1,765 6.6 -32.5°
Drops below altitude 10° 02:17:08 10° 106° (ESE) 1,818 6.7 -32.4°
Sets 02:20:50 0° 73° (ENE) 2,718 8.3 -31.8°
